Regional Weather Roundup
Issued by NWS

Home | Current Version | Previous Version | Text Only | Print | Product List | Glossary On
Versions: 1 2 3 4 5 6 7 8 9 10 11 12 13 14 15 16 17 18 19 20 21 22 23 24 25 26 27 28 29 30 31 32 33 34 35 36 37 38 39 40 41 42 43 44 45 46 47 48 49 50
000
ASUS43 KMPX 172110
RWRMN
WEATHER ROUNDUP FOR MINNESOTA
NATIONAL WEATHER SERVICE TWIN CITIES/CHANHASSEN MN
400 PM CDT MON MAY 17 2021


NOTE: "FAIR" INDICATES FEW OR NO CLOUDS BELOW 12,000 FEET WITH NO
SIGNIFICANT WEATHER AND/OR OBSTRUCTIONS TO VISIBILITY. N/A MEANS
CURRENT SKY AND/OR WEATHER CONDITIONS ARE NOT AVAILABLE.

MNZ060>063-068>070-172200-
   Twin Cities Metro

CITY           SKY/WX    TMP DP  RH WIND       PRES   REMARKS
TWIN CITIES    MOSUNNY   78  46  32 SE12G22   30.10F
ST PAUL        SUNNY     78  44  29 SE10G18   30.11F
CRYSTAL        SUNNY     78  42  27 SE10G21   30.09F
BLAINE         MOSUNNY   79  46  31 SE7G16    30.10F
LAKEVILLE      SUNNY     79  43  27 SE6G12    30.10F
EDEN PRAIRIE   SUNNY     78  44  29 SE14G21   30.09F
SOUTH ST PAUL  SUNNY     78  39  24 SE8       30.11S
LAKE ELMO      FAIR      75  46  35 E9G16     30.12F
$$
MNZ001>005-007-008-013>017-022>024-027-028-172200-
   Northwest Minnesota

CITY           SKY/WX    TMP DP  RH WIND       PRES   REMARKS
BEMIDJI        PTSUNNY   83  44  25 S13       30.05F
HALLOCK        MOSUNNY   88  39  18 SW18G26   29.96F
ROSEAU           N/A     90 N/A N/A S14       30.00F
WARROAD        MOSUNNY   82  48  30 SW3       30.01S
THIEF RVR FALL SUNNY     81  44  27 S18       30.03F
CROOKSTON      SUNNY     82  39  21 S18G26    30.00F
FOSSTON        MOSUNNY   81  39  22 SW10G17   30.04F
DETROIT LAKES  MOSUNNY   79  46  31 SE9G20    30.06F
MOORHEAD       SUNNY     84  32  15 SE12G24   30.03F
PARK RAPIDS    MOSUNNY   80  43  26 SE12G22   30.06F
MAHNOMEN       FAIR      80  44  28 SE9G16    30.04F
$$
MNZ006-009>011-018-025>026-172200-
   North Central Minnesota

CITY           SKY/WX    TMP DP  RH WIND       PRES   REMARKS
BAUDETTE       MOSUNNY   83  39  21 SW9G18    30.02S
FLAG ISLAND    SUNNY     70  50  49 S14       29.98F
INTL FALLS     MOSUNNY   80  45  28 W10G18    30.03R
WASKISH        SUNNY     79  45  29 W6        30.05F
BIG FORK       MOSUNNY   84  45  24 S7        30.10F
LONGVILLE      SUNNY     81  46  30 SE12      30.07F
GRAND RAPIDS   MOSUNNY   81  47  30 S12       30.09F
CRANE LAKE     MOSUNNY   81  41  24 N8        30.06S
ORR            MOSUNNY   79  37  22 CALM      30.04S
COOK           MOSUNNY   79  43  27 SW6       30.06S
WALKER         CLEAR     77  47  33 E5        30.07S
$$
MNZ012-019>021-037-172200-
   Northeast Minnesota

CITY           SKY/WX    TMP DP  RH WIND       PRES   REMARKS
DULUTH         MOSUNNY   81  44  27 SE10G18   30.09F
ELY            MOSUNNY   82  37  20 SW9       30.06S
HIBBING        MOSUNNY   77  46  33 VRB3      30.06F
EVELETH        MOSUNNY   82  46  28 CALM      30.08F
DULUTH HARBOR  SUNNY     75  52  43 N6        30.07S
TWO HARBORS    MOSUNNY   81  48  32 S12       30.07F
SILVER BAY       N/A     79  41  25 S14       30.07F
GRAND MARAIS     N/A     55  45  68 W10       30.06S
G MARAIS ARPRT MOSUNNY   73  41  31 S6        30.11R
$$
MNZ029>031-032-039>041-046>048-054>057-064-172200-
   West Central Minnesota

CITY           SKY/WX    TMP DP  RH WIND       PRES   REMARKS
FERGUS FALLS   SUNNY     79  46  31 SE16G22   30.02F
WHEATON        SUNNY     81  36  19 SE13G24   30.05F
MORRIS         SUNNY     81  27  13 SE13G22   30.06F
ALEXANDRIA     SUNNY     78  41  26 SE16G26   30.09F
ELBOW LAKE     FAIR      78  45  31 SE16G22   30.07F
WADENA         SUNNY     81  48  32 S9        30.07F
GLENWOOD       SUNNY     79  43  27 SE14      30.09F
APPLETON       SUNNY     81  36  19 SE18      30.05F
BENSON         SUNNY     79  43  27 S10G18    30.06F
ORTONVILLE       N/A     79  43  27 SE15G23   30.05F
MADISON        SUNNY     81  43  26 SE13G22   30.07F
WILLMAR        FAIR      81  39  22 SE17G26   30.10F
$$
MNZ033>034-036-042>043-049>051-058-059-172200-
   Central Minnesota

CITY           SKY/WX    TMP DP  RH WIND       PRES   REMARKS
ST CLOUD       SUNNY     78  40  25 SE15G21   30.09F
SAUK CENTRE    CLOUDY    78  41  26 S8G18     30.09F
PAYNESVILLE    SUNNY     77  43  29 SE10G18   30.09F
AITKIN         SUNNY     79  43  27 S8G17     30.09S
PINE RIVER     MOSUNNY   79  50  36 CALM      30.10F
BRAINERD       SUNNY     81  44  27 S8G22     30.08F
STAPLES        SUNNY     81  43  26 S13G18    30.08F
LONG PRAIRIE   FAIR      77  43  29 SE7G17    30.10F
LITTLE FALLS   SUNNY     79  34  19 SE8G17    30.09F
CAMP RIPLEY    FAIR      80  42  26 SE7       30.09F
LITCHFIELD     SUNNY     79  45  29 SE18      30.09F
BUFFALO        SUNNY     77  43  29 MISG      30.11F
MAPLE LAKE     SUNNY     79  49  34 SE5       30.10F
HUTCHINSON     SUNNY     78  48  34 SE12G24   30.09F
$$
MNZ037-044-045-052-053-172200-
   East Central Minnesota

CITY           SKY/WX    TMP DP  RH WIND       PRES   REMARKS
PRINCETON      SUNNY     81  45  28 SE12      30.10F
MORA           SUNNY     75  43  31 S9G16     30.12F
CAMBRIDGE      SUNNY     81  54  39 SE7G17    30.10F
RUSH CITY      SUNNY     76  45  32 SW6G16    30.11S
MOOSE LAKE     MOSUNNY   81  45  28 S3        30.08S
HINCKLEY       CLEAR     79  46  31 SW7       30.11S
CLOQUET        SUNNY     77  43  29 S3        30.08F
MCGREGOR       MOSUNNY   81  46  30 SW7       30.09F
$$
MNZ071>073-080-081-089-090-097-098-172200-
   Southwest Minnesota

CITY           SKY/WX    TMP DP  RH WIND       PRES   REMARKS
MONTEVIDEO     SUNNY     79  37  22 S16       30.06F
GRANITE FALLS  MOSUNNY   79  47  31 E13G18    30.07F
CANBY          PTSUNNY   78  44  30 E14G24    30.07F
MARSHALL       PTSUNNY   76  48  37 SE20G25   30.06F
REDWOOD FALLS  MOSUNNY   78  45  30 SE12G20   30.06F
OLIVIA         SUNNY     79  43  27 SE15G21   30.07F
PIPESTONE      PTSUNNY   70  52  52 SE13      30.07F
WINDOM           N/A     70  48  46 E15G22    30.08S
WORTHINGTON    CLOUDY    69  53  56 SE22      30.08F
JACKSON        CLOUDY    70  50  49 E18       30.09F
TRACY          PTSUNNY   74  43  32 SE17G23   30.07S
SLAYTON        PTSUNNY   71  51  48 SE20      30.08F
$$
MNZ065>067-074>077-082>085-091>093-172200-
   South Central Minnesota

CITY           SKY/WX    TMP DP  RH WIND       PRES   REMARKS
MANKATO        PTSUNNY   76  46  34 SE16G24   30.08F
NEW ULM        MOSUNNY   75  46  35 SE16G22   30.07F
ST JAMES       PTSUNNY   73  46  38 SE20G28   30.08S
FAIRMONT       CLOUDY    71  50  47 SE21      30.08F
GLENCOE        SUNNY     79  43  27 SE9       30.08F
FARIBAULT      MOSUNNY   79  45  29 SE10G20   30.10F
OWATONNA       PTSUNNY   75  48  38 E12G24    30.10F
WASECA         MOSUNNY   75  48  38 SE15G22   30.11F
ALBERT LEA     CLOUDY    72  50  46 SE14      30.11F
$$
MNZ078>079-086>088-094>096-172200-
   Southeast Minnesota

CITY           SKY/WX    TMP DP  RH WIND       PRES   REMARKS
ROCHESTER      PTSUNNY   76  47  35 SE14      30.12S
RED WING       SUNNY     79  41  25 SE13      30.10F
STANTON        SUNNY     76  45  33 E10       30.09F
DODGE CENTER   MOSUNNY   75  43  31 SE14G22   30.12S
WINONA         MOSUNNY   77  52  41 SE7       30.12S
AUSTIN         CLOUDY    72  50  46 SE13      30.12S
PRESTON        MOSUNNY   73  47  39 SE14      30.13F
$$
ABBREVIATIONS USED IN REMARKS
   TC - TEMPERATURES IN CELSIUS
  WCI - WIND CHILL INDEX
   HX - HEAT INDEX
  VSB - VISIBILITY
$$



USA.gov is the U.S. government's official web portal to all federal, state and local government web resources and services.